Regional Weather Roundup
Issued by NWS

Home | Current Version | Previous Version | Text Only | Print | Product List | Glossary Off
Versions: 1 2 3 4 5 6 7 8 9 10 11 12 13 14 15 16 17 18 19 20 21 22 23 24 25 26 27 28 29 30 31 32 33 34 35 36 37 38 39 40 41 42 43 44 45 46 47 48 49 50

223
ASUS44 KJAN 201910
RWRMS

MISSISSIPPI HOURLY WEATHER ROUNDUP
NATIONAL WEATHER SERVICE JACKSON MS
200 PM CDT WED AUG 20 2014

NOTE: "FAIR: INDICATES FEW OR NO CLOUDS BELOW 12,000 FEET WITH NO
SIGNIFICANT WEATHER AND/OR OBSTRUCTIONS TO VISIBILITY.

MSZ001>002-007>008-010>013-018>021-025>028-034>036-202000-
NORTHWEST MISSISSIPPI

CITY           SKY/WX    TMP DP  RH WIND       PRES   REMARKS
CLARKSDALE     FAIR      90  75  62 S5        30.06S HX 100
CLEVELAND      FAIR      91  75  60 W5        30.05S HX 102
GREENWOOD      MOSUNNY   91  72  53 SW5       30.06F HX  98
GREENVILLE     SUNNY    N/A N/A N/A SW9       30.05S
GRENADA        FAIR      90  70  51 SW7       30.06F HX  95
OLIVE BRANCH   MOSUNNY   91  72  52 SW12G20   30.05R HX  98
OXFORD         FAIR      90  68  48 W8        30.08S HX  93
TUNICA         CLEAR     91  70  49 SW10      30.05S HX  97
$$

MSZ003>006-009-014>017-022>024-029>033-037>039-202000-
NORTHEAST MISSISSIPPI

CITY           SKY/WX    TMP DP  RH WIND       PRES   REMARKS
BELMONT        FAIR      90  76  63 SW7       30.06F HX 101
COLUMBUS AFB   MOSUNNY   93  70  47 W9        30.05F HX  98
CORINTH        FAIR      93  73  52 SW8G15    30.04S HX 102
GOLDN TRIANGLE MOSUNNY   97  72  44 N5        30.06F HX 105
STARKVILLE     FAIR      91  68  46 NW6       30.05F HX  95
TUPELO         MOSUNNY   94  70  45 NW7       30.05S HX 100
$$

MSZ040-058-202000-
CENTRAL MISSISSIPPI

CITY           SKY/WX    TMP DP  RH WIND       PRES   REMARKS
JACKSON INTL   MOSUNNY   93  69  45 W5        30.07F HX  98
JACKSON HAWKNS SUNNY     92  70  48 W6        30.07F HX  97
MERIDIAN KEY   SUNNY     93  71  48 VRB5      30.06F HX 100
MERIDIAN NAS   MOSUNNY   92  72  51 VRB3      30.07F HX  99
RAYMOND        FAIR      91  86  84 S3        30.07F HX 122
VICKSBURG      MOSUNNY   92  72  51 SE6       30.06F HX  99
$$

MSZ059>079-202000-
SOUTH MISSISSIPPI

CITY           SKY/WX    TMP DP  RH WIND       PRES   REMARKS
BROOKHAVEN     FAIR      91  70  49 S7        30.10F HX  97
COLUMBIA       FAIR      91  72  52 MISG      30.06F HX  98
HATTIESBURG    SUNNY     94  65  38 NW5       30.08F HX  96
MCCOMB         MOSUNNY   93  65  39 W7        30.07F HX  95
NATCHEZ        MOSUNNY   90  75  62 S5        30.07F HX 100
PINE BELT      MOSUNNY   91  68  46 S10       30.10F HX  95
$$

MSZ080>082-202000-
COASTAL MISSISSIPPI

CITY           SKY/WX    TMP DP  RH WIND       PRES   REMARKS
BAY ST LOUIS   TSTM     N/A N/A N/A E12G17    30.07F
BILOXI         MOSUNNY   91  75  59 S10       30.07F HX 102
PASCAGOULA     PTSUNNY   92  75  57 SW5       30.07F HX 103
GULFPORT       MOSUNNY   91  73  55 S8        30.07F HX  99
$$



USA.gov is the U.S. government's official web portal to all federal, state and local government web resources and services.